Regional Weather Roundup
Issued by NWS Upton, NY

Current Version | Previous Version | Graphics & Text | Print | Product List | Glossary Off
Versions: 1 2 3 4 5 6 7 8 9 10 11 12 13 14 15 16 17 18 19 20 21 22 23 24 25 26 27 28 29 30 31 32 33 34 35 36 37 38 39 40 41 42 43 44 45 46 47 48 49 50

797
ASUS41 KOKX 182205
RWROKX

Regional Weather Roundup
National Weather Service New York NY
500 PM EST SUN FEB 18 2018

Note: "FAIR" indicates few or no clouds below 12,000 feet with no
significant weather and/or obstructions to visibility.

NYZ071-072-176-178-NJZ106-104-182300-
New York City Metro Area

CITY           SKY/WX    TMP DP  RH WIND       PRES   REMARKS
Central Park   FAIR      43  23  45 NW8       30.42R
Bronx Bot Gard   N/A     43  23  45 W1        30.41R
Bronx Lehman C   N/A     43  23  45 NW8         N/A
LaGuardia Arpt MOCLDY    44  23  43 NW10      30.40R
Queens College   N/A     43  25  49 NW9         N/A
Kennedy Intl   MOCLDY    43  25  49 NW15      30.41R
Breezy Point     N/A     43 N/A N/A NW8         N/A
Brooklyn Coll    N/A     45  25  45 NW10        N/A
Staten Island    N/A     45  25  45 NW6         N/A
Newark/Liberty MOCLDY    44  24  45 NW10      30.41R
Teterboro      FAIR      44  23  43 NW13      30.40R
$$

NYZ177-179-078>081-182300-
Long Island New York

CITY           SKY/WX    TMP DP  RH WIND       PRES   REMARKS
Jones Beach      N/A     43 N/A N/A NW12        N/A
Wantagh          N/A     43  23  45 NW9         N/A
Hempstead      NOT AVBL
Matinecock Pt    N/A     41 N/A N/A W14         N/A
Farmingdale    FAIR      42  23  46 NW13      30.39R
MacArthur/ISP  MOCLDY    43  23  45 NW7       30.38R
Shirley        FAIR      43  24  47 NW6       30.39R
Mt Sinai Harb    N/A    N/A N/A N/A W2G9        N/A
Westhampton    FAIR      42  22  44 NW9       30.40R
East Hampton   FAIR      40  25  54 NW6       30.37R
Southold         N/A     39  27  60 W6          N/A  WCI  35
Montauk          N/A     42  28  57 NW8       30.38R
$$

NYZ052-065-067-182300-
Hudson Valley

CITY           SKY/WX    TMP DP  RH WIND       PRES   REMARKS
White Plains   FAIR      40  23  50 W9        30.38R WCI  34
Larchmont Harb   N/A     41 N/A N/A W10         N/A
Croton On Huds   N/A     41 N/A N/A W7          N/A
Somers           N/A     39  23  52 NW6         N/A  WCI  35
Brewster         N/A     39  23  52 NW7         N/A  WCI  34
Newburgh       PTCLDY    39  23  52 NW12      30.40R WCI  32
Montgomery     FAIR      40  20  44 W8        30.38R WCI  34
Otisville        N/A     37  21  52 W3          N/A
Warwick          N/A     39  23  52 NW5         N/A
Suffern          N/A     39  21  48 NW10        N/A  WCI  32
Poughkeepsie   FAIR      41  21  44 W8        30.39R
Albany         MOCLDY    36  22  56 W7        30.40R WCI  30
$$

NJZ001-105-106-008-010-013-015-019>022-104-182300-
New Jersey

CITY           SKY/WX    TMP DP  RH WIND       PRES   REMARKS
Newark/Liberty MOCLDY    44  24  45 NW10      30.41R
Teterboro      FAIR      44  23  43 NW13      30.40R
Caldwell       FAIR      43  22  43 NW6       30.41R
Somerville     FAIR      43  24  47 MISG      30.40R
Linden         FAIR      44  23  43 CALM      30.42R
Perth Amboy      N/A     43 N/A N/A W12         N/A
Sussex         FAIR      41  21  44 VRB5      30.39R
Andover          N/A     41  21  44 VRB6      30.39R
Trenton        FAIR      44  24  45 W8        30.42R
Millville      FAIR      44  27  51 NW7       30.44R
Atlantic City  FAIR      47  28  47 NW7       30.42R
Wrightstown    FAIR      43  26  50 NW7       30.39
Toms River     FAIR      44  26  49 W9        30.42R
Belmar         FAIR      43  25  49 W6        30.42R
$$

PAZ047>061-062-071-182300-
Eastern Pennsylvania

CITY           SKY/WX    TMP DP  RH WIND       PRES   REMARKS
Philadelphia   MOCLDY    45  24  43 NW9       30.43R
Allentown      FAIR      43  23  45 W6        30.40R
Scranton       FAIR      40  22  48 CALM      30.37R
$$

CTZ002-004>006-009-010-012-RIZ004-006-007-MAZ004-011-015-182300-
Southern New England

 In CT

CITY           SKY/WX    TMP DP  RH WIND       PRES   REMARKS
Bradley Intl   FAIR      38  22  52 NW15      30.40R WCI  29
Hartford       FAIR      40  23  50 NW8       30.40R WCI  34
Danbury        FAIR      42  22  44 W7        30.38R
Wtrbury/Oxford FAIR      38  23  55 N8        30.35R WCI  32
Norwalk Harbor   N/A     41 N/A N/A NW12        N/A
Bridgeport     FAIR      41  26  55 S7        30.38R
Meriden        FAIR      41  23  48 N8        30.38R
New Haven      FAIR      44  23  43 VRB3      30.37R
Chester        FAIR      41  21  45 NW13      30.36R
Groton         FAIR      42  24  49 NW10      30.37R
Willimantic    FAIR      40  22  48 NW9G17    30.39R WCI  34

 In RI

CITY           SKY/WX    TMP DP  RH WIND       PRES   REMARKS
Providence     MOCLDY    43  23  45 NW7       30.35R
Block Island   FAIR      40  29  64 NW7       30.37R
Westerly       FAIR      43  24  47 NW9       30.37R

In MA

CITY           SKY/WX    TMP DP  RH WIND       PRES   REMARKS
Boston         FAIR      42  22  44 NW9       30.33R
Worcester      FAIR      36  20  52 W10       30.32R WCI  28
Westfield      MOCLDY    37  23  56 NW16      30.38R WCI  28
Provincetown   FAIR      39  29  67 NW7       30.35R WCI  34
Nantucket      FAIR      39  30  70 N6        30.34R WCI  35
$$

ANZ330-335-338-340-345-350-353-355-182300-
Coastal Marine Observations


STATION/POSITION TIME  SKY/WX   TEMP    WIND        PRES    VSBY  WAVE
                                AIR SEA DIR/SP/G                  HT/PER
                 (UTC)          (F)     (DEG/KT/KT) (MB)    (MI)  (FT/S)
NY Harb Entrance 2150            42 40  260/  6/ 10 1029.4          2/ 8
20 S Fire Island 2150            42 42  270/ 12/ 14 1029.3          2/ 7
15 E Barnegat Li 2130               41                N/A           2/ 8
Hudson Canyon    2150            42 47  330/ 10/ 14 1029.9          4/ 6
Kings Point      2142            41 36  360/ 12/ 13 1030.1
Execution Rocks  NOT AVBL
Western LI Sound NOT AVBL
Central LI Sound 2145            38     260/  8/  8   N/A           1
Robbins Reef     2148            44     320/  9/ 11 1030.0
$$


>>>>>>>>>>>>>>>>>>>>>>>>>>>> KEY <<<<<<<<<<<<<<<<<<<<<<<<<<<
>                                                          <
>     SKY/WX - Sky Condition/Present Weather               <
>     TMP    - Temperature in Fahrenheit                   <
>     DP     - Dew Point in Fahrenheit                     <
>     RH     - Relative Humidity in Percent                <
>     WIND   - Direction (from) and Speed in MPH           <
>     PRES   - Mean Sea Level Pressure (inches of Hg)      <
>     WCI    - Wind Chill Index                            <
>     VSB    - Visibility in Miles                         <
>     HX     - Heat Index                                  <
>     TC     - Temperature in Celsius                      <
>     VRB    - Varibale Wind Direction                     <
>                                                          <
>>>>>>>>>>>>>>>>>>>>>>>>>>>> KEY <<<<<<<<<<<<<<<<<<<<<<<<<<<




USA.gov is the U.S. government's official web portal to all federal, state and local government web resources and services.